Location: Unspecified
(0.0000°N, 0.0000°E)
Time: 18:47:15
(UTC+00:00)

Vanguard 1 - Pass Details

Date: 23 November 2019
Orbit: 652 x 3831 km, 34.2° (Epoch: 05 December)

Event Time Altitude Azimuth Distance (km) Brightness Sun altitude
Rises 16:15:48 0° 326° (NNW) 2,947 12.7 21.2°
Reaches altitude 10° 16:18:13 10° 339° (NNW) 2,070 11.8 20.6°
Maximum altitude 16:22:09 28° 40° (NE) 1,369 10.5 19.7°
Drops below altitude 10° 16:27:12 10° 99° (E) 2,704 11.9 18.5°
Sets 16:30:50 0° 110° (ESE) 4,067 12.8 17.7°
